[[{"header":{"parameterUnit":"m.s-1","parameterCategory":1,"la1":30.2991,"la2":30.254,"lo1":-89.0895,"lo2":-89.0444,"dy":0.0017,"dx":0.0017,"nx":28,"ny":28,"refTime":"2025-07-28T21:00:00:Z","depth":0,"parameterNumber":2,"parameterNumberName":"U-component_of_WINDS"},"data":[0,0,0,0,0,0,0,0,0,0,0,0,0,0,0,0,0,0,0,0,0,0,0,0,0,0,0,0,0,0,0,0,0,0,0,0,0,0,0,0,0,0,0,0,0,0,0,0,0,0,0,0,0,0,0,0,0,0,3.7561,3.7565,0,3.7954,3.7958,3.7963,3.8082,3.808,3.8078,3.8076,3.847,3.8482,3.8494,0,0,0,0,0,0,0,0,0,0,0,0,0,3.691,3.6921,3.756,3.7565,3.757,3.7953,3.7959,3.7964,3.8083,3.808,3.8078,3.8076,3.8466,3.848,3.8495,0,0,0,0,0,0,0,0,0,0,0,0,0,3.7236,3.6925,3.7559,3.7676,3.769,3.7952,3.7959,3.7965,3.8083,3.808,3.8077,3.8075,3.8461,3.8479,3.8497,3.8668,0,0,3.8553,3.8561,0,0,0,0,0,0,0,0,3.7217,3.726,3.7654,3.7668,3.7685,3.7966,3.7874,3.8201,3.8084,3.7933,3.8076,3.8073,3.8304,3.8335,3.8415,3.8687,3.8704,3.8555,3.8566,3.8574,3.8579,0,0,0,0,0,0,0,3.7195,3.7243,3.7716,3.7659,3.7678,3.7708,3.7751,3.7936,3.813,3.7946,3.7956,3.8002,3.8312,3.8397,3.8425,3.8709,3.8554,3.8571,3.8582,3.8589,3.9153,3.9156,0,0,0,0,0,0,3.7153,3.7224,3.7703,3.7727,3.744,3.7722,3.777,3.7879,3.8128,3.8164,3.8004,3.8006,3.8367,3.8403,3.8439,3.8662,3.8574,3.8591,3.8601,3.9149,3.9153,3.9158,0,0,0,0,0,0,3.7139,3.7195,3.7687,3.7479,3.7544,3.7736,3.7857,3.7888,3.7973,3.8172,3.8206,3.8055,3.8366,3.8413,3.8614,3.8677,3.8599,3.8616,3.9144,3.915,3.9156,3.9105,0,0,0,0,0,0,3.7119,3.7189,3.7255,3.7479,3.7554,3.7855,3.7861,3.7898,3.8006,3.8012,3.8229,3.8262,3.8367,3.8585,3.8632,3.8701,3.863,3.9139,3.9147,3.9154,3.9102,3.9109,3.9114,0,0,0,0,0,3.7096,3.7221,3.7258,3.7315,3.7642,3.7858,3.7901,3.8022,3.801,3.8079,3.8209,3.8255,3.8664,3.8605,3.8658,3.8734,3.9135,3.9145,3.9153,3.9099,3.9107,3.9114,0,0,0,0,0,0,3.6992,3.7252,3.7296,3.7498,3.7656,3.7878,3.7967,3.8026,3.8187,3.8185,3.8327,3.8375,3.8567,3.8671,3.8601,3.8918,3.8902,3.8921,3.8842,3.8852,3.8858,3.8827,3.8646,0,0,0,0,0,3.6994,3.715,3.7368,3.7525,3.7603,3.7772,3.787,3.7952,3.812,3.8186,3.8329,3.8488,3.8655,3.8759,3.8921,3.912,3.9171,3.9199,3.9205,3.9209,3.9224,3.9344,3.936,3.9187,3.9187,3.9186,0,0,3.6996,3.7158,3.7246,3.7509,3.764,3.7799,3.7827,3.799,3.811,3.8209,3.8409,3.8521,3.8709,3.8911,3.9007,3.9004,3.9285,3.9221,3.9222,3.9235,3.9354,3.937,3.9385,3.9193,3.9192,3.9191,0,0,3.7083,3.722,3.737,3.7505,3.7708,3.7822,3.7858,3.8075,3.8155,3.8359,3.844,3.8584,3.8864,3.8997,3.9101,3.9252,3.9303,3.9301,3.9332,3.9447,3.9461,3.9474,3.9531,3.9549,3.9316,3.9316,3.9316,0,3.7059,3.7303,3.7438,3.7602,3.7717,3.7823,3.7977,3.81,3.8343,3.842,3.8415,3.8776,3.8909,3.9147,3.9186,3.9266,3.9313,3.9275,3.9449,3.9463,3.9477,3.9533,3.9553,3.9315,3.9315,3.9315,3.9315,0,3.7266,3.7435,3.7531,3.7772,3.7898,3.8055,3.8216,3.8328,3.8402,3.8516,3.8727,3.8893,3.9095,3.9158,3.9228,3.9409,3.9402,3.9421,3.9406,3.949,3.9545,3.9567,3.9313,3.9313,3.9313,3.9314,0,0,3.7287,3.7611,3.7644,3.7759,3.7996,3.8128,3.8294,3.8498,3.8592,3.876,3.8903,3.9144,3.9167,3.9286,3.9373,3.9474,3.959,3.9483,3.9489,3.9498,3.9805,3.9789,3.9811,3.9627,3.9632,3.9635,3.979,0,3.7405,3.7708,3.784,3.8082,3.8243,3.8352,3.8498,3.8659,3.8774,3.8927,3.9053,3.9223,3.9239,3.9312,3.9418,3.9553,3.9653,3.9544,3.9762,3.9768,3.971,3.9839,3.982,3.9958,3.9812,3.9816,3.9819,0,3.7579,3.7756,3.8016,3.8245,3.8317,3.8444,3.8647,3.8791,3.898,3.9057,3.9196,3.9282,3.9462,3.944,3.9692,3.9615,3.9714,3.9795,3.9804,3.9826,3.9796,3.9866,4.0004,4.0024,3.9853,3.9851,3.9848,0,3.7572,3.7875,3.8072,3.8166,3.8436,3.8525,3.8641,3.8828,3.8945,3.9121,3.92,3.9393,3.9498,3.9647,3.9784,3.9755,4.0026,4.0013,4.0095,4.0092,4.0143,4.0137,4.0298,4.0208,4.0207,4.0207,4.0207,0,3.7688,3.7843,3.8074,3.8194,3.8374,3.8527,3.87,3.8824,3.8992,3.9139,3.9245,3.9381,3.9555,3.9714,3.9823,4.0019,4.0065,4.0133,4.0159,4.0123,4.0114,4.0186,4.018,4.0213,4.0211,4.021,4.0209,0,3.7707,3.7868,3.8091,3.8333,3.8398,3.852,3.8727,3.8849,3.8975,3.9161,3.9213,3.9408,3.9602,3.9756,4.0006,4.0081,4.0287,4.0316,4.0224,4.0237,4.0312,4.0303,4.0523,4.0562,4.0445,4.0446,4.0447,0,3.7769,3.7893,3.8152,3.8262,3.8379,3.8552,3.8676,3.8834,3.8958,3.919,3.9285,3.9489,3.9659,3.9965,4.0128,4.0323,4.0358,4.0423,4.0387,4.0349,4.0361,4.0351,4.0366,4.0424,4.0425,4.0425,4.0426,0,3.7863,3.794,3.8115,3.8322,3.8468,3.8636,3.8807,3.889,3.9081,3.9215,3.9418,3.9551,3.9814,4.0015,4.023,4.035,4.042,4.0438,4.0467,4.0429,4.0371,4.0406,4.0234,4.043,4.0429,4.0429,4.0429,4.0429,3.7906,3.8025,3.8229,3.8423,3.8571,3.8731,3.8861,3.9007,3.9181,3.941,3.9494,3.9704,3.9899,4.0195,4.0318,4.0485,4.0489,4.0531,4.0542,4.0549,4.0547,4.0348,4.0524,4.0524,4.0525,4.0525,4.0525,0,3.8007,3.8148,3.8326,3.8566,3.8721,3.8782,3.8977,3.9101,3.9286,3.9464,3.9634,3.9872,4.0071,4.0255,4.0463,4.0562,4.06,4.0611,4.0604,4.0632,4.0529,4.0484,4.0578,4.0578,4.0578,4.0578,4.0578,4.0577,3.8077,3.8283,3.8386,3.8668,3.8807,3.9018,3.9125,3.9275,3.9419,3.9681,3.985,3.9971,4.0153,4.0378,4.0565,4.0614,4.0686,4.0689,4.0746,4.0646,4.0638,4.0631,4.0589,4.0703,4.0703,4.0835,4.0836,4.0837]},{"header":{"parameterUnit":"m.s-1","parameterCategory":1,"la1":30.2991,"la2":30.254,"lo1":-89.0895,"lo2":-89.0444,"dy":0.0017,"dx":0.0017,"nx":28,"ny":28,"refTime":"2025-07-28T21:00:00:Z","depth":0,"parameterNumber":3,"parameterNumberName":"V-component_of_WINDS"},"data":[0,0,0,0,0,0,0,0,0,0,0,0,0,0,0,0,0,0,0,0,0,0,0,0,0,0,0,0,0,0,0,0,0,0,0,0,0,0,0,0,0,0,0,0,0,0,0,0,0,0,0,0,0,0,0,0,0,0,-0.8601,-0.8601,0,-0.8649,-0.8649,-0.865,-0.8571,-0.8568,-0.8565,-0.8563,-0.8618,-0.8622,-0.8626,0,0,0,0,0,0,0,0,0,0,0,0,0,-0.8445,-0.8448,-0.8601,-0.8601,-0.8602,-0.8649,-0.8649,-0.865,-0.8571,-0.8568,-0.8565,-0.8561,-0.8617,-0.8622,-0.8626,0,0,0,0,0,0,0,0,0,0,0,0,0,-0.8505,-0.8449,-0.8601,-0.8568,-0.8566,-0.8648,-0.8649,-0.865,-0.8572,-0.8568,-0.8564,-0.856,-0.8615,-0.8621,-0.8627,-0.8746,0,0,-0.8645,-0.8648,0,0,0,0,0,0,0,0,-0.8501,-0.8511,-0.8572,-0.857,-0.8568,-0.8599,-0.8614,-0.8682,-0.8573,-0.857,-0.8563,-0.8558,-0.8616,-0.8621,-0.8639,-0.8748,-0.8751,-0.8646,-0.865,-0.8652,-0.8654,0,0,0,0,0,0,0,-0.8497,-0.8508,-0.862,-0.8573,-0.8571,-0.8552,-0.8556,-0.8627,-0.8615,-0.857,-0.8564,-0.857,-0.8614,-0.8634,-0.864,-0.8752,-0.8646,-0.8651,-0.8655,-0.8657,-0.8963,-0.8968,0,0,0,0,0,0,-0.8496,-0.8505,-0.8618,-0.8621,-0.8524,-0.8558,-0.8563,-0.8594,-0.8614,-0.8613,-0.8574,-0.8567,-0.8626,-0.8633,-0.8642,-0.8788,-0.8652,-0.8658,-0.8661,-0.8959,-0.8964,-0.8969,0,0,0,0,0,0,-0.8493,-0.8507,-0.8616,-0.8562,-0.8574,-0.8565,-0.86,-0.8597,-0.8617,-0.8617,-0.8615,-0.8597,-0.8623,-0.8633,-0.8721,-0.8789,-0.866,-0.8666,-0.8954,-0.8961,-0.8967,-0.9078,0,0,0,0,0,0,-0.8489,-0.8507,-0.8552,-0.8563,-0.8577,-0.8695,-0.8604,-0.8601,-0.8627,-0.8618,-0.8638,-0.8638,-0.862,-0.8712,-0.8727,-0.8795,-0.8671,-0.8948,-0.8957,-0.8965,-0.9069,-0.9088,-0.9105,0,0,0,0,0,-0.8484,-0.8582,-0.8555,-0.8569,-0.8633,-0.8699,-0.8707,-0.8683,-0.8632,-0.8679,-0.8678,-0.8637,-0.8775,-0.8722,-0.8738,-0.8809,-0.8944,-0.8954,-0.8964,-0.9061,-0.9084,-0.9104,0,0,0,0,0,0,-0.8583,-0.8583,-0.8553,-0.8657,-0.8678,-0.8685,-0.8744,-0.8708,-0.8746,-0.8737,-0.8706,-0.8711,-0.8807,-0.8813,-0.8754,-0.8925,-0.8852,-0.8865,-0.892,-0.8942,-0.896,-0.8962,-0.8676,0,0,0,0,0,-0.8616,-0.8667,-0.8665,-0.8757,-0.8768,-0.8754,-0.8781,-0.876,-0.8782,-0.8792,-0.8797,-0.8822,-0.887,-0.8904,-0.8949,-0.9064,-0.9072,-0.912,-0.9138,-0.9153,-0.9169,-0.9236,-0.926,-0.9003,-0.9003,-0.9002,0,0,-0.8688,-0.8693,-0.8729,-0.8777,-0.8791,-0.8848,-0.8763,-0.8826,-0.8869,-0.8801,-0.8888,-0.889,-0.8915,-0.9019,-0.9064,-0.9028,-0.9239,-0.9166,-0.9177,-0.9186,-0.9249,-0.9274,-0.9295,-0.901,-0.9008,-0.9007,0,0,-0.8849,-0.8855,-0.8935,-0.8949,-0.8969,-0.8958,-0.8976,-0.8987,-0.8987,-0.907,-0.9022,-0.9071,-0.9155,-0.9176,-0.9198,-0.9359,-0.9326,-0.9373,-0.9472,-0.9538,-0.9558,-0.9576,-0.9643,-0.9666,-0.9386,-0.9387,-0.9387,0,-0.8938,-0.902,-0.8981,-0.9049,-0.9073,-0.9008,-0.9091,-0.9106,-0.9142,-0.9161,-0.9116,-0.9221,-0.9232,-0.9343,-0.9382,-0.9398,-0.9423,-0.9378,-0.9557,-0.9575,-0.9592,-0.9655,-0.9679,-0.9393,-0.9393,-0.9392,-0.9391,0,-0.913,-0.9187,-0.9249,-0.9283,-0.9312,-0.9386,-0.9362,-0.9395,-0.9368,-0.9361,-0.9448,-0.9457,-0.9505,-0.9526,-0.9501,-0.9633,-0.9611,-0.9561,-0.949,-0.9624,-0.9683,-0.9706,-0.9403,-0.94,-0.9398,-0.9397,0,0,-0.937,-0.9374,-0.94,-0.9415,-0.9428,-0.9473,-0.9542,-0.9586,-0.962,-0.9641,-0.9705,-0.9773,-0.9728,-0.9752,-0.9727,-0.9783,-0.992,-0.9728,-0.9728,-0.9773,-1.0074,-1.0121,-1.015,-0.9891,-0.9895,-0.9898,-1.0076,0,-0.9539,-0.966,-0.9625,-0.9748,-0.9803,-0.9737,-0.9798,-0.9814,-0.9807,-0.9853,-0.9844,-0.9898,-0.9829,-0.9844,-0.9894,-0.9893,-0.9982,-0.9877,-0.9957,-0.9961,-0.9967,-1.0179,-1.0229,-1.0397,-1.0098,-1.0102,-1.0104,0,-0.9756,-0.9785,-0.9914,-0.9918,-0.9939,-0.9995,-1.0033,-1.0074,-1.0091,-1.0081,-1.0105,-1.0068,-1.0139,-1.0055,-1.0156,-1.0086,-1.0114,-1.0116,-1.0122,-1.0141,-1.0051,-1.0215,-1.0449,-1.048,-1.0139,-1.0136,-1.0133,0,-0.9931,-1.0001,-1.0088,-1.0101,-1.0105,-1.0147,-1.0151,-1.0161,-1.019,-1.022,-1.0239,-1.0277,-1.0302,-1.0334,-1.0309,-1.0248,-1.0417,-1.0329,-1.0418,-1.042,-1.047,-1.047,-1.0725,-1.0465,-1.0464,-1.0464,-1.0463,0,-1.0132,-1.0217,-1.0167,-1.0223,-1.0315,-1.0269,-1.0362,-1.0358,-1.0367,-1.0422,-1.0362,-1.0416,-1.0373,-1.0423,-1.0402,-1.0494,-1.0501,-1.0501,-1.0498,-1.0515,-1.0517,-1.0544,-1.0537,-1.0471,-1.0469,-1.0468,-1.0467,0,-1.0352,-1.032,-1.0413,-1.0405,-1.0404,-1.0474,-1.0469,-1.0521,-1.0503,-1.0575,-1.0588,-1.0565,-1.062,-1.0593,-1.0651,-1.0637,-1.0759,-1.0732,-1.0755,-1.0753,-1.0849,-1.0845,-1.1142,-1.1183,-1.0884,-1.0886,-1.0889,0,-1.049,-1.0553,-1.0549,-1.0581,-1.0588,-1.0638,-1.0665,-1.0619,-1.0651,-1.067,-1.0721,-1.0769,-1.0808,-1.0899,-1.089,-1.0934,-1.0917,-1.1016,-1.0924,-1.0941,-1.0933,-1.0936,-1.0946,-1.1041,-1.1045,-1.1047,-1.1049,0,-1.0742,-1.0721,-1.0761,-1.0796,-1.0828,-1.0854,-1.0874,-1.0903,-1.0857,-1.0895,-1.0949,-1.0978,-1.1034,-1.1087,-1.1124,-1.113,-1.1087,-1.1075,-1.1101,-1.1128,-1.1144,-1.1148,-1.0821,-1.1074,-1.1071,-1.1069,-1.1068,-1.1067,-1.0934,-1.0987,-1.0994,-1.104,-1.1048,-1.1068,-1.1117,-1.1103,-1.1147,-1.1189,-1.1156,-1.1223,-1.1234,-1.1279,-1.129,-1.1343,-1.1304,-1.1338,-1.135,-1.1363,-1.1381,-1.1121,-1.1348,-1.1347,-1.1346,-1.1346,-1.1345,0,-1.1194,-1.1191,-1.1233,-1.1262,-1.1299,-1.1241,-1.1259,-1.1297,-1.1354,-1.1366,-1.1403,-1.1466,-1.1514,-1.1504,-1.1548,-1.1593,-1.1574,-1.1608,-1.1612,-1.1616,-1.1407,-1.1387,-1.1622,-1.1622,-1.1622,-1.1622,-1.1622,-1.1622,-1.1335,-1.1425,-1.1404,-1.1497,-1.1494,-1.1557,-1.1573,-1.1591,-1.1601,-1.1673,-1.1712,-1.1701,-1.1706,-1.1749,-1.1792,-1.1787,-1.1813,-1.1857,-1.1847,-1.1656,-1.1629,-1.1604,-1.1585,-1.1859,-1.1859,-1.2053,-1.2054,-1.2056]}]]